Portada
METAR-TAF:

METAR-TAF

Aeropuertos :

Nenana, Alaska, Estados Unidos

latitud: 64-33N, longitud: 149-05W, altitud: 110 m

Observación

El informe se hizo hace 21 minutos, a las 20:53 UTC
Viento 4 kt con dirección variable
Temperatura -2°C
Humedad 59%
Presión 1024 hPa
Visibilidad: 16.1 km
Cielo cubierto a una altura de 3700 ft

METAR: PANN 142053Z AUTO VRB04KT 10SM OVC037 M02/M09 A3024 RMK AO2 SLP250 60000 T10171094 51014 TSNO $

Hora: 13:14 (21:14 UTC)


TAF: falta

Observaciones y pronósticos meteorológicos de más de 4000 aeropuertos (mensajes METAR y TAF).

Los puntos amarillos y rojos representan las estaciones disponibles.

Ponga el ratón en el punto deseado para ver el nombre de la estación.

Haga clic para ver las observaciones y los pronósticos meteorológicos.

Para cambiar el mapa : haga clic en los botones verdes con una cruz de color negro para hacer un zoom, en el botón verde con un guión para alejar o en las flechas verdes para mapas adyacentes.


METAR-TAF: